RADUGA 14 [-]

Last updated on July 6, 2021, 3:35 p.m. UTC

1 14725U 84016A   21186.93695644  .00000004  00000-0  00000-0 0  9996
2 14725  12.0132 325.3330 0006147 113.7926 246.6019  1.00262193 99972
UTC
Height (km)
Latitude
Longitude
Inclination
Orbital Period
UTC large
Height (km)
Speed (km/s)
/
Latitude / Longitude
Inclination (degrees)
Orbital Period (minutes)
Azimuth
Elevation
Range (km)
Doppler Factor
iOS Compass Heading
iOS Angle